Beacon packets - map view · info · telemetry · weather · raw · status · beacons · messages · bulletins · browse · moving · my account
Originating callsign:
Show:

Loading beacon packets...

APRS beacon packets are stored for 14 days. It is possible to search using wildcards (*?) after a prefix.

2019-05-24 05:12:22 EDT: DL1JCZ-9>ID: DL1JCZ/R
2019-05-24 05:12:23 EDT: 9A3XK>BEACON: CRLNet.108 - SysOp 9a3XK & 9a7kxp-Internet via DJWIRELES http://djw.hr/
2019-05-24 05:12:25 EDT: LU9FQR-4>ID: [FF96QX] BPQ NODO PACKET VGGNOD (BBS DE LU9FQR)
2019-05-24 05:12:31 EDT: 9A3XK>BEACON: Power 9W Gain 3dB Height 240m Ant omni
2019-05-24 05:12:34 EDT: DK3RW-2>UIDIGI: UIDIGI 1.9
2019-05-24 05:12:38 EDT: KE0AE>BEACON: Genoa, Colo. WX/APRS Digi Station Voice 147.060 PL 103.5
2019-05-24 05:12:40 EDT: N5LUY-2>ID: N5LUY-2/R DISABL/D N5LUY-1/B
2019-05-24 05:12:52 EDT: KC4PL-12>BEACON: z
2019-05-24 05:12:54 EDT: W0OFK-4>BEACON: 146.730- *111111z4201.88N/09721.45WrT131 Net 7:30pm Mon EVARC
2019-05-24 05:12:56 EDT: KB4VSP-3>BEACON: <UI>:
2019-05-24 05:12:59 EDT: KK7DO-1>BEACON: 145.430- PL 123.0 Repeater
2019-05-24 05:13:03 EDT: WX6HNX-6>BEACON: National Weather Service remote weather station Huron, CA
2019-05-24 05:13:03 EDT: K5WH-8>ID: K5WH-8/R MARATH/D 0/B
2019-05-24 05:13:04 EDT: KL7JFU-4>ID: KL7JFU/R
2019-05-24 05:13:05 EDT: IR0UBN>UIDIGI: UIDIGI 1.9
2019-05-24 05:13:06 EDT: W3SMD-1>ID: W3SMD-1/R WIDE1-1/D W3SMD-15/B
2019-05-24 05:13:10 EDT: ZL2FX-3>UIDIGI: UIDIGI 1.9
2019-05-24 05:13:13 EDT: WHTNY>BEACON: KD5DMT-5 APRS Digipeater
2019-05-24 05:13:15 EDT: W3TWA-3>ID: W3TWA/R
2019-05-24 05:13:21 EDT: KF6RAL-1>BEACON: UTAH COUNTY NOAA/NWS APRS Digi
2019-05-24 05:13:00 EDT: ZS4OIL-1>ID: ZS4OIL-1/R ZS4OIL-3/G
2019-05-24 05:13:00 EDT: W2CMC-15>BEACON: Cape May County NJ RACES/ARES
2019-05-24 05:13:12 EDT: MTCLMN>BEACON: W8FSM/WA8MAC
2019-05-24 05:13:13 EDT: K8QIK-2>ID: Network node (LANSW1)
2019-05-24 05:13:14 EDT: WP4PWS>CQ: Me pueden encontrar usualmente en la frequencia 147.525 mhz simplex utilizando C4FM
2019-05-24 05:13:20 EDT: SNOBNK>BEACON: 146.62T100 Cascade, ID APRS 8322 ft www.voiceofidaho.org (APRS Info: www.nwaprs.org) W7VOI
2019-05-24 05:13:27 EDT: KS0SA-15>ID: KS0SA-15/R KC0BS-1/B
2019-05-24 05:13:31 EDT: VK3REB-1>UIDIGI: UIDIGI 1.9
2019-05-24 05:13:33 EDT: NU5P-11>BEACON: Welcome to Pleasanton,Tx EL08sv Atascosa Co. Intertie,Inc.
2019-05-24 05:13:36 EDT: N3UJJ-6>BEACON: Annapolis Digipeater
2019-05-24 05:13:29 EDT: HI8COE-10>BEACON: Winlink 2000 RMS Packet Server
2019-05-24 05:13:30 EDT: ZS0TRG-1>ID: ZS0TRG-1/R
2019-05-24 05:13:31 EDT: KB8UVN-7>ID: Network node (JTSW1)
2019-05-24 05:13:34 EDT: KB8PXM>BEACON: ;146.67-R T719 Net Tue 9PM
2019-05-24 05:13:35 EDT: WOLF>BEACON: KD7CGF OR WOLF joeb@vyanet.com
2019-05-24 05:13:36 EDT: STULSA>ID: STULSA/R STULSA-1/B STULSA-7/N
2019-05-24 05:13:37 EDT: N3KTX-5>BEACON: MasonDixon A.P.R.S. Group AT 146.895- WITH I.R.L.P.#7070
2019-05-24 05:13:37 EDT: N>ID: Network Node
2019-05-24 05:13:42 EDT: VK2AMW-1>UIDIGI: UIDIGI 1.9
2019-05-24 05:13:47 EDT: NC6J-4>ID: NC6J BPQ Packet Node in Sacramento, CA
2019-05-24 05:13:37 EDT: LZ2AB-3>UIDIGI: UIDIGI 1.9
2019-05-24 05:13:37 EDT: XE3I-3>ID: XE3I/R
2019-05-24 05:13:39 EDT: ES2ADF-5>BEACON: http://pauhh.planet.ee/adf
2019-05-24 05:13:40 EDT: N7JJY-6>BEACON: TESTING PATH TO GILLETTE
2019-05-24 05:13:47 EDT: N9LEM-10>BEACON: Dupage County Illinois full digi - voice 144.310
2019-05-24 05:13:50 EDT: DISABL>ID: Network Node
2019-05-24 05:14:00 EDT: KB0UGF-3>UIDIGI: UIDIGI 1.9
2019-05-24 05:14:00 EDT: IZ4EFV-4>ID: IZ4EFV/R
2019-05-24 05:14:00 EDT: K6CDF-8>BEACON: Local APRS info http://info.aprs.net/index.php/NorCal_APRS_Regional_Info
2019-05-24 05:14:01 EDT: N3DXC-2>BEACON: Kinter Hill IGate http://aprs.serveftp.com
< previous
FAQ · Blog · Discussion group · Linking to aprs.fi · AIS sites · Service status · Database statistics · Advertising on aprs.fi · Technical details · API · Change log · Planned changes · Credits and thanks · Terms Of Service · iPhone/iPad APRS